Location: Newark
(30.4994°N, 96.8283°W)
Time: 11:27:51
(UTC+00:00)

Envisat - Pass Details

Date: 20 November 2019
Orbit: 764 x 766 km, 98.1° (Epoch: 07 December)

Event Time Altitude Azimuth Distance (km) Brightness Sun altitude
Rises 01:32:08 0° 199° (SSW) 3,217 6.6 -26.5°
Reaches altitude 10° 01:34:56 10° 215° (SW) 2,294 6.0 -27.1°
Maximum altitude 01:38:46 22° 264° (W) 1,638 5.4 -27.9°
Drops below altitude 10° 01:42:37 10° 314° (NW) 2,303 5.9 -28.7°
Sets 01:45:27 0° 330° (NNW) 3,233 6.5 -29.3°
